User: anonymous   Login
Location: Nitra
(48.3167°N, 18.0833°E)
Time: 15:15:34
(UTC+01:00)
Language:

STARLINK-1547 - Orbit

View from above orbital plane
View from above orbital plane
View from above satellite
View from above satellite

Ground track
Ground track

The orbit data is extracted from the following two-line orbital elements,

1 46347C 20062Z   20334.12794567  .00003193  00000-0  34823-4 0  3340
2 46347  52.9978   5.1578 0002395  17.5646  92.3796 15.62732659    13
Epoch (UTC): 29 November 2020 03:04:14
Eccentricity: 0.0002395
inclination: 52.9978°
perigee height: 378 km
apogee height: 381 km
right ascension of ascending node: 5.1578°
argument of perigee: 17.5646°
revolutions per day: 15.62732659
mean anomaly at epoch: 92.3796°
orbit number at epoch: 1

The dashed part of the orbit path shows where the satellite is in the earth's shadow,  

DLR